Vorticity
nan nan nan nan nan nan nan nan nan nan nan nan nan nan nan nan nan nan nan nan nan nan nan nan nan nan nan nan nan nan nan nan nan nan nan nan nan nan nan nan nan nan nan
nan 8 9 9 10 9 9 9 8 9 8 7 8 7 6 7 8 12 8 9 8 8 8 7 8 9 10 10 11 11 9 8 11 10 13 7 7 10 11 13 10 10 nan
nan 8 8 8 8 8 9 8 9 9 8 9 9 7 7 7 9 11 11 10 8 8 9 9 9 9 11 8 10 8 11 8 10 14 12 9 9 10 12 9 10 9 nan
nan 8 8 8 8 7 7 8 8 8 9 9 8 9 8 8 11 13 12 9 9 8 9 10 11 11 10 11 9 10 9 11 11 14 11 11 9 9 10 9 9 7 nan
nan 10 9 9 9 9 8 8 9 9 8 9 10 8 8 9 18 14 10 9 9 9 9 8 8 10 9 14 15 13 11 14 13 11 10 9 10 9 10 11 11 6 nan
nan 8 9 10 10 10 10 10 9 10 9 10 9 10 9 10 22 13 8 9 9 7 6 10 7 5 2 8 9 7 11 11 10 10 12 10 8 11 11 14 12 8 nan
nan 11 10 9 10 10 11 10 10 10 10 10 10 11 9 13 14 9 9 11 10 7 9 8 5 6 6 3 6 4 4 9 7 10 12 11 11 10 11 11 11 12 nan
nan 11 11 10 11 10 10 10 10 10 11 11 11 10 9 19 14 7 6 8 11 9 8 5 12 7 9 5 4 6 6 7 10 13 11 10 12 12 13 12 9 8 nan
nan 11 11 12 12 11 11 10 10 10 10 10 11 11 9 16 13 9 5 6 10 9 7 9 11 7 6 8 9 7 8 9 4 8 9 5 1 10 20 18 7 6 nan
nan 12 11 12 12 12 12 11 10 10 9 11 11 11 11 11 12 6 2 5 9 9 8 8 11 17 8 5 7 8 7 11 12 6 6 6 10 6 12 20 16 9 nan
nan 17 17 12 9 11 12 14 11 9 11 11 10 11 13 13 13 9 4 4 10 10 9 10 14 14 8 5 3 10 15 9 8 9 11 8 12 8 11 10 13 18 nan
nan 17 14 13 12 14 14 14 13 12 10 11 11 11 12 14 16 10 5 9 16 12 8 10 19 13 8 7 8 9 6 8 12 10 9 10 9 10 11 9 10 13 nan
nan 21 13 12 12 7 11 14 19 16 15 16 12 12 13 12 12 15 9 10 15 12 10 18 16 7 5 5 12 7 9 10 11 13 8 10 10 10 10 7 8 6 nan
nan 12 7 6 13 13 5 7 10 12 14 14 12 17 20 11 8 13 11 9 9 8 11 14 9 8 4 8 10 7 7 9 12 14 10 12 11 9 8 10 7 6 nan
nan 11 11 6 6 7 7 9 11 14 10 10 8 7 10 11 15 20 12 9 8 12 7 7 10 9 9 9 7 10 10 11 11 9 10 8 10 11 9 12 10 10 nan
nan 12 15 13 15 12 11 6 5 14 10 11 9 11 16 17 26 24 10 12 14 8 4 9 9 10 10 9 10 10 11 9 11 10 11 9 10 10 8 10 11 11 nan
nan 12 10 15 16 11 13 8 9 4 11 19 14 9 12 22 26 24 21 15 11 3 6 12 10 9 10 11 10 10 11 11 9 11 10 10 9 10 9 8 9 9 nan
nan 15 10 14 8 13 10 8 13 17 19 3 9 15 23 17 12 7 5 6 9 10 12 11 10 9 11 12 11 11 11 11 8 10 11 11 10 8 10 9 11 8 nan
nan 12 13 13 13 14 13 13 14 16 15 17 11 5 8 5 10 14 4 1 13 10 7 11 11 7 9 14 14 12 13 11 10 9 10 11 10 9 10 9 10 11 nan
nan 12 12 12 12 12 14 14 14 15 16 16 15 15 4 3 6 13 5 10 15 10 13 12 10 9 9 13 15 12 12 10 11 9 11 11 10 10 10 11 11 9 nan
nan 7 14 16 11 12 11 12 12 13 13 11 7 6 14 20 14 11 7 10 13 12 11 10 12 9 9 12 15 13 11 10 11 10 10 10 11 10 10 11 10 8 nan
nan 12 14 11 11 12 13 12 11 12 11 12 9 4 12 19 15 19 14 14 12 13 15 12 11 11 9 8 14 15 12 11 12 11 10 10 10 11 11 11 10 10 nan
nan 13 12 12 12 13 13 12 12 13 12 11 12 12 12 12 13 13 14 15 21 21 18 15 12 11 10 8 10 17 21 13 12 13 10 10 9 12 11 11 10 10 nan
nan 13 13 12 12 12 12 13 12 12 13 12 11 11 12 11 12 12 13 12 13 12 14 20 21 16 11 8 6 15 14 12 25 23 10 10 8 11 10 11 12 11 nan
nan 13 12 12 12 12 12 12 12 11 12 12 12 12 12 12 11 12 13 14 13 11 12 14 13 18 20 14 8 8 8 14 11 23 26 14 13 10 9 10 11 12 nan
nan nan nan nan nan nan nan nan nan nan nan nan nan nan nan nan nan nan nan nan nan nan nan nan nan nan nan nan nan nan nan nan nan nan nan nan nan nan nan nan nan nan nan
CAPE
2444 2590 2575 2718 2480 2476 1568 1550 1992 2068 2059 2563 2505 2465 2490 2547 3195 3373 3150 1525 624 419 1 0 0 0 0 0 0 0 0 0 0 8 32 59 81 139 173 173 86 79 5
3384 3862 3745 3318 3239 2719 2720 1720 1590 2659 2528 2052 2326 2554 2623 2310 2933 3548 3179 1515 663 556 1 0 0 0 0 0 1 0 0 1 0 89 73 108 143 106 216 190 82 34 37
3219 3265 3992 4117 4188 4299 4155 3791 3068 2595 1931 1582 2213 2454 2664 2352 2706 3675 3211 1761 661 280 0 0 0 0 0 0 0 0 0 0 16 29 38 70 97 141 178 198 104 81 28
2563 2915 3795 3251 3960 3212 3985 3510 3056 2919 2055 1991 2307 2565 2702 2230 2952 3486 3102 1497 634 11 0 0 0 0 0 0 0 10 0 11 44 16 36 56 59 55 144 131 42 17 7
3661 2785 3474 3396 3260 3121 3012 2901 2862 3049 2420 1929 1805 1956 2195 1975 2682 3885 2865 1387 211 2 0 0 0 0 0 0 0 0 4 9 5 18 17 28 12 23 59 208 39 7 9
2210 2361 3098 3715 3595 3876 3531 3273 3511 3049 2956 3168 2096 1471 1564 1541 1721 2789 2446 1212 214 0 0 0 0 0 0 0 0 0 0 0 19 17 19 43 3 6 52 36 0 10 10
2384 2339 2689 3485 3237 3769 3606 3903 3851 3892 3886 3168 2523 1898 1864 2406 2020 1671 1181 1090 160 0 0 0 0 0 0 0 0 0 0 0 0 25 20 15 10 11 12 14 0 0 5
2688 2564 2486 2548 2726 3319 4135 4358 4606 4395 4319 3749 2993 2733 2756 2599 917 458 333 971 135 0 0 0 0 0 0 0 0 3 0 0 0 4 10 6 5 6 20 28 3 3 8
2695 2796 2802 2748 3022 3158 3708 4237 4477 4430 4587 4066 3292 3466 3604 2296 0 0 102 803 13 0 0 0 0 0 0 0 0 2 13 1 0 0 0 0 0 0 0 8 5 0 4
2180 2550 2887 3070 3547 3242 4047 4452 4626 4168 4432 3517 3682 4115 3420 3119 0 0 220 857 0 0 0 0 0 0 0 0 0 0 11 8 6 2 0 0 0 5 1 34 25 5 6
2220 3019 2967 3549 3527 3700 4377 4549 4547 4539 4269 4376 4055 4191 4263 3803 38 0 0 1098 19 0 0 0 0 0 0 0 0 1 6 0 0 12 19 43 32 16 3 18 19 30 15
1940 2184 2539 3251 3036 3190 3831 4455 4555 4629 4441 4247 4453 3450 3144 3869 204 0 0 0 0 0 0 0 0 0 0 0 0 0 0 0 26 12 10 8 1 20 32 11 33 28 37
2137 2275 2659 2792 3138 3347 3262 2695 3987 4193 4080 3665 2506 3263 3891 3853 425 0 0 0 0 0 0 0 0 0 0 0 0 0 0 0 13 26 21 7 7 12 45 58 38 40 61
985 1290 1416 1804 1907 2553 2353 1865 1641 1706 1664 1780 2340 1633 3961 3903 1371 15 0 0 0 0 0 0 0 0 0 0 0 0 0 0 8 11 10 4 11 14 13 13 12 14 11
916 873 883 864 772 1123 982 525 598 459 208 416 230 188 243 1672 2409 277 0 0 0 0 0 0 0 0 0 0 0 0 0 0 3 6 10 14 8 29 15 20 34 22 13
797 768 308 729 768 734 628 286 0 1 0 0 0 1 2 0 8 0 0 0 0 0 0 0 0 0 0 0 0 0 0 0 2 8 9 6 7 15 24 18 26 18 16
345 405 663 703 157 250 224 116 68 2 0 1 1 1 2 3 0 0 0 0 0 0 0 0 0 0 0 0 0 0 0 0 11 3 10 4 5 6 12 20 14 8 20
142 1 103 426 796 1090 273 240 427 697 210 112 0 0 1 0 0 0 0 0 0 0 0 0 0 0 0 0 0 0 0 0 0 0 2 3 5 0 6 10 14 13 10
7 3 13 145 280 308 966 1031 910 565 170 64 10 2 0 1 1 1 1 0 1 6 12 0 0 0 18 12 0 0 0 0 0 0 0 3 1 3 3 7 6 1 4
11 0 1 6 9 14 74 102 355 346 33 11 6 2 1 2 3 2 3 10 7 9 13 10 3 0 0 7 0 0 0 0 0 0 0 0 1 0 3 2 4 2 9
4 4 0 16 6 8 6 8 7 8 3 6 4 2 2 1 3 3 6 3 4 13 5 5 14 0 0 0 3 0 0 0 0 0 0 0 0 0 1 0 0 0 16
3 6 5 5 5 5 3 3 3 3 3 3 3 2 0 1 2 3 1 0 6 5 14 12 11 0 0 0 0 0 0 0 0 0 0 0 0 0 0 0 0 0 5
0 0 0 1 2 1 5 3 4 4 4 3 3 4 4 5 6 5 4 3 1 12 1 3 3 0 0 0 0 0 0 0 0 0 0 0 0 0 0 0 0 0 0
2 1 0 0 0 1 3 6 6 2 5 5 5 5 4 4 5 5 4 4 2 2 1 2 6 1 0 0 0 0 0 0 0 0 0 0 0 0 0 0 0 0 0
1 3 3 1 1 0 0 0 1 2 3 4 4 4 4 3 2 4 3 4 3 2 2 2 1 1 1 0 0 0 0 1 0 0 0 0 0 0 0 0 0 0 0
0 0 3 4 2 0 0 0 0 0 0 1 3 4 4 3 3 3 2 1 2 2 2 2 2 1 1 1 0 0 0 1 0 0 0 0 1 0 0 0 0 0 0